SCP
0 0 0 0 0 0 0 0 0 0 0 0 0 -0 -0 -0 0 0 0 0 0 0 0 0 0 0 0 0 0 0 0 0 0 0 0 0 0 0 0 0 0 0 0 0 0 0 0 0 0
0 0 0 0 0 0 0 0 0 0 0 0 0 -0 -0 0 0 0 0 0 0 0 0 0 0 0 0 0 0 0 0 0 0 0 0 0 0 0 0 0 0 0 0 0 0 0 0 0 0
0 0 0 0 0 0 0 0 0 0 0 0 0 0 0 0 0 0 0 0 0 0 0 0 0 0 0 0 0 0 0 0 0 0 0 0 0 0 0 0 0 0 0 0 0 0 0 0 0
0 0 0 0 0 0 0 0 0 -0 -0 0 0 0 0 0 0 0 0 0 0 0 0 0 0 0 0 0 0 0 0 0 0 0 0 0 0 0 0 0 0 0 0 0 0 0 0 0 0
-0 -0 0 0 0 0 0 0 -0 -0 -0 0 0 -0 0 0 0 0 0 0 0 0 0 0 0 0 0 0 0 0 0 0 0 0 0 0 0 0 0 0 0 0 0 0 0 0 0 0 0
-0 -0 -0 0 0 0 0 0 0 -0 0 0 0 -0 0 0 0 0 0 0 0 0 0 0 0 0 0 0 0 0 0 0 0 0 0 0 0 0 0 0 0 0 0 0 0 0 0 0 0
-0 -0 -0 -0 0 0 0 0 0 0 0 0 0 0 0 0 0 0 0 0 0 0 0 0 0 0 0 0 0 0 0 0 0 0 0 0 0 0 0 0 0 0 0 0 0 0 0 0 0
-0 -0 -0 -0 -0 0 0 0 0 0 0 0 0 0 0 0 0 0 0 0 0 0 0 0 0 0 0 0 0 0 0 0 0 0 0 0 0 0 0 0 0 0 0 0 0 0 0 0 0
-0 -0 -0 -0 -0 -0 0 0 0 0 0 0 0 0 0 0 0 0 0 0 0 0 0 0 0 0 0 0 0 0 0 0 0 0 0 0 0 0 0 0 0 0 0 0 0 0 0 0 0
-0 -0 -0 -0 -0 -0 0 0 0 0 0 0 0 0 0 0 0 0 0 0 0 0 0 0 0 0 0 0 0 0 0 0 0 0 0 0 0 0 0 0 0 0 0 0 0 0 0 0 0
0 -0 -0 0 0 0 0 0 0 0 0 0 0 0 0 0 0 0 0 0 0 0 0 0 0 0 0 0 0 0 0 0 0 0 0 0 0 0 0 0 0 0 0 0 0 0 0 0 0
0 0 0 0 0 0 0 0 0 0 0 0 0 0 0 0 0 0 0 0 0 0 0 0 0 0 0 0 0 0 0 0 0 0 0 0 0 0 0 0 0 0 0 0 0 0 0 0 0
0 0 0 0 0 0 0 0 0 0 0 0 0 0 0 0 0 0 0 0 0 0 0 0 0 0 0 0 0 0 0 0 0 0 0 0 0 0 0 0 0 0 0 0 0 0 0 0 0
0 0 0 0 0 0 0 0 0 0 0 0 0 0 0 0 0 0 0 0 0 0 0 0 0 0 0 0 0 0 0 0 0 0 0 0 0 0 0 0 0 0 0 0 0 0 0 0 0
0 0 0 0 0 0 0 0 0 0 0 0 0 0 0 0 0 0 0 0 0 0 0 0 0 0 0 0 0 0 0 0 0 0 0 0 0 0 0 0 0 0 0 0 0 0 0 0 0
0 0 0 0 0 0 0 0 0 0 0 0 0 0 0 0 0 0 0 0 0 0 0 0 0 0 0 0 0 0 0 0 0 0 0 0 0 0 0 0 0 0 0 0 0 0 0 0 0
0 0 0 0 0 0 0 0 0 0 0 0 0 0 0 0 0 0 0 0 0 0 0 0 0 0 0 0 0 0 0 0 0 0 0 0 0 0 0 0 0 0 0 0 0 0 0 0 0
0 0 0 0 0 0 0 0 0 0 0 0 0 0 0 0 0 0 0 0 0 0 0 0 0 0 0 0 0 0 0 0 0 0 0 0 0 0 0 0 0 0 0 0 0 0 0 0 0
0 0 0 0 0 0 0 0 0 0 0 0 0 0 0 0 0 0 0 0 0 0 0 0 0 0 0 0 0 0 0 0 0 0 0 0 0 0 0 0 0 0 0 0 0 0 0 0 0
0 0 0 0 0 0 0 0 0 0 0 0 0 0 0 0 0 0 0 0 0 0 0 0 0 0 0 0 0 0 0 0 0 0 0 0 0 0 0 0 0 0 0 0 0 0 0 0 0
0 0 0 0 0 0 0 0 0 0 0 0 0 0 0 0 0 0 0 0 0 0 0 0 0 0 0 0 0 0 0 0 0 0 0 0 0 0 0 0 0 0 0 0 0 0 0 0 0
0 0 0 0 0 0 0 0 0 0 0 0 0 0 0 0 0 0 0 0 0 0 0 0 0 0 0 0 0 0 0 0 0 0 0 0 0 0 0 0 0 0 0 0 0 0 0 0 0
0 0 0 0 0 0 0 0 0 0 0 0 0 0 0 0 0 0 0 0 0 0 0 0 0 0 0 0 0 0 0 0 0 0 0 0 0 0 0 0 0 0 0 0 0 0 0 0 0
0 0 0 0 0 0 0 0 0 0 0 0 0 0 0 0 0 0 0 0 0 0 0 0 0 0 0 0 0 0 0 0 0 0 0 0 0 0 0 0 0 0 0 0 0 0 0 0 0
0 0 0 0 0 0 0 0 0 0 0 0 0 0 0 0 0 0 0 0 0 0 0 0 0 0 0 0 0 0 0 0 0 0 0 0 0 0 0 0 0 0 0 0 0 0 0 0 0
0 0 0 0 0 0 0 0 0 0 0 0 0 0 0 0 0 0 0 0 0 0 0 0 0 0 0 0 0 0 0 0 0 0 0 0 0 0 0 0 0 0 0 0 0 0 0 0 0
0 0 0 0 0 0 0 0 0 0 0 0 0 0 0 0 0 0 0 0 0 0 0 0 0 0 0 0 0 0 0 0 0 0 0 0 0 0 0 0 0 0 0 0 0 0 0 0 0
0 0 0 0 0 0 0 0 0 0 0 0 0 0 0 0 0 0 0 0 0 0 0 0 0 0 0 0 0 0 0 0 0 0 0 0 0 0 0 0 0 0 0 0 0 0 0 0 0
0 0 0 0 0 0 0 0 0 0 0 0 0 0 0 0 0 0 0 0 0 0 0 0 0 0 0 0 0 0 0 0 0 0 0 0 0 0 0 0 0 0 0 0 0 0 0 0 0
0 0 0 0 0 0 0 0 0 0 0 0 0 0 0 0 0 0 0 0 0 0 0 0 0 0 0 0 0 0 0 0 0 0 0 0 0 0 0 0 0 0 0 0 0 0 0 0 0
Wind_Speed
9 11 8 2 3 5 6 0 2 4 2 7 5 3 4 6 6 5 4 7 11 14 16 17 19 18 16 14 13 12 11 10 9 9 9 9 9 9 9 10 10 10 11 11 11 12 12 12 12
9 8 4 3 4 6 4 2 3 5 7 4 1 2 1 6 8 9 5 6 11 14 15 15 19 18 16 15 14 13 11 10 9 9 8 8 8 8 8 9 9 9 10 10 10 11 11 11 11
11 8 4 3 6 7 1 4 4 6 4 0 2 1 2 4 7 6 6 8 10 12 14 15 21 19 17 16 15 13 12 11 10 9 8 8 8 8 8 8 8 8 8 9 9 9 10 10 10
6 3 4 5 9 8 4 3 5 2 3 2 3 3 4 6 5 7 8 8 10 11 13 16 21 19 18 16 15 14 12 11 10 9 8 7 7 7 7 7 7 7 7 7 8 8 8 9 9
4 4 5 6 9 4 1 5 5 3 1 3 1 4 3 5 10 10 8 8 9 11 12 16 21 19 18 17 15 14 13 12 11 10 8 7 7 7 7 6 5 5 5 5 6 6 7 7 7
3 4 5 7 9 5 2 3 2 4 3 1 1 3 4 6 8 7 7 6 7 10 11 16 20 19 18 17 16 14 13 12 11 10 9 8 7 7 6 6 5 4 3 3 4 4 5 5 5
4 4 7 8 5 2 2 3 1 3 4 2 1 2 5 6 5 5 6 5 6 9 10 13 12 14 17 16 16 15 14 12 11 10 9 8 8 7 7 6 5 4 3 2 1 1 2 2 2
3 4 7 7 4 1 3 4 2 3 5 4 3 3 5 4 4 5 5 3 5 7 9 13 11 10 9 10 13 14 14 13 12 11 9 8 8 7 7 7 7 6 4 3 3 2 2 2 2
3 4 6 5 2 2 3 2 1 1 3 5 3 1 7 8 6 5 5 3 3 5 6 10 12 11 10 9 11 11 12 12 10 9 9 8 4 5 6 8 9 8 6 6 5 5 5 5 5
3 4 7 6 5 5 5 3 3 3 5 5 4 1 7 7 6 5 6 7 7 7 6 6 10 11 10 9 8 6 6 6 6 5 6 5 4 4 5 8 10 9 8 8 8 8 7 6 4
5 7 7 6 6 6 6 6 5 5 6 4 4 4 3 2 3 5 5 6 8 10 8 6 7 9 9 6 6 5 4 5 6 6 7 5 4 3 3 3 5 5 6 4 6 6 4 5 4
6 7 7 4 4 2 4 6 6 6 5 2 3 3 3 2 2 3 3 3 5 8 9 7 6 6 8 7 5 5 4 4 4 5 5 4 3 3 2 2 4 4 3 4 4 3 5 6 6
6 8 7 4 2 3 6 7 6 7 5 1 3 2 1 2 2 1 1 1 4 6 8 8 7 6 6 6 5 5 5 5 5 5 5 4 3 4 3 2 3 3 3 4 4 4 5 5 5
5 6 7 6 6 6 7 7 7 6 3 3 2 2 1 3 3 3 2 0 3 5 7 7 7 6 6 4 4 4 4 4 5 5 5 5 3 3 4 3 3 3 3 3 3 4 4 4 4
4 7 9 10 9 3 1 7 10 7 5 4 4 4 4 4 3 3 3 1 2 5 6 7 6 6 6 5 4 3 3 3 4 4 5 5 4 4 3 3 3 3 3 4 3 4 3 3 4
6 6 6 4 5 5 2 7 1 7 6 4 3 4 6 5 5 5 4 3 3 5 6 6 5 5 5 5 4 2 2 3 3 3 3 5 5 5 4 3 3 4 3 3 3 3 3 4 4
7 7 9 4 7 6 6 6 2 5 6 5 4 5 7 6 6 5 5 5 5 6 7 7 6 4 4 4 3 2 1 1 1 1 2 2 4 4 3 3 3 3 3 3 3 3 3 4 5
6 6 6 3 5 5 6 7 5 5 7 6 5 6 7 7 6 6 6 6 7 8 8 8 6 5 5 3 3 2 2 1 1 1 1 2 2 3 3 2 3 3 2 3 3 4 4 4 4
6 7 9 8 1 2 6 9 8 6 6 6 6 7 9 8 7 6 7 7 7 7 8 7 6 5 4 3 2 2 2 1 1 1 1 1 2 2 2 2 3 3 3 4 4 4 4 4 3
5 8 10 8 2 2 6 10 9 6 6 6 7 9 10 9 7 7 7 6 7 7 7 7 6 6 5 3 3 2 2 1 1 0 1 1 2 2 2 3 3 3 3 4 5 4 3 4 3
7 8 9 8 5 5 6 9 8 5 4 4 7 10 10 10 9 8 7 7 7 6 6 6 6 6 5 4 3 2 2 1 1 0 0 1 1 2 2 3 3 3 3 4 5 5 5 5 4
8 5 5 5 4 5 5 5 4 8 6 6 7 9 10 10 9 8 8 7 6 6 6 7 7 6 5 4 4 3 2 1 1 1 1 1 1 1 1 2 3 3 3 4 5 5 4 5 5
3 2 3 5 5 7 7 7 6 10 9 10 9 9 10 10 9 8 8 8 7 6 5 6 6 6 5 4 4 3 2 1 1 2 1 1 1 1 1 1 2 3 3 4 5 5 5 4 5
2 1 4 4 3 7 10 9 6 9 13 14 12 11 11 10 10 9 8 8 6 5 5 5 6 5 4 4 4 4 3 2 2 2 2 2 1 1 1 1 2 3 3 4 5 5 6 6 6
3 3 3 4 5 9 5 5 6 6 10 15 16 13 12 11 10 9 9 8 7 6 5 5 6 5 4 4 3 3 3 2 1 1 2 2 2 2 2 1 2 3 4 5 5 5 6 6 7
8 7 6 4 3 1 2 5 2 5 4 11 14 14 13 11 10 10 9 8 8 7 6 5 5 5 4 3 2 2 2 1 1 1 1 2 2 2 3 3 4 5 5 5 5 5 6 6 7
7 8 6 5 6 4 5 4 3 3 3 5 12 13 13 12 11 10 9 8 8 7 6 5 5 5 3 3 2 2 2 1 1 2 2 2 2 3 4 4 5 6 6 6 6 5 7 6 7
4 3 4 5 4 5 7 7 7 7 7 6 9 12 12 11 11 10 9 8 7 6 5 5 5 4 3 2 2 1 1 1 1 2 3 4 4 4 5 5 6 6 6 7 6 6 7 7 7
7 4 5 4 5 3 4 2 3 8 9 9 9 10 11 11 11 10 9 8 8 7 6 5 4 4 3 2 1 1 1 1 2 3 4 4 4 5 5 6 6 7 7 7 7 7 7 8 8
8 9 8 5 5 4 2 3 2 5 6 7 7 8 9 10 10 9 9 8 7 7 6 5 4 4 2 1 1 1 2 2 3 4 4 4 5 5 6 7 7 8 8 7 7 8 8 8 9
Wind_Direction
266 253 245 248 252 245 251 225 76 81 75 63 52 348 0 55 46 91 149 144 127 138 149 163 162 161 161 157 153 147 141 135 125 117 110 103 96 90 84 79 74 69 65 62 61 60 59 58 57
275 247 236 239 250 255 242 145 115 73 64 61 98 264 281 89 93 113 135 131 131 141 149 164 164 164 164 160 157 153 149 144 136 127 120 113 106 98 91 85 78 72 68 65 62 62 61 61 58
268 255 229 223 241 260 289 93 79 87 91 140 251 187 356 74 91 102 135 142 135 142 151 164 165 166 166 164 162 158 157 153 145 137 131 125 117 108 98 90 83 76 71 67 64 62 62 61 61
243 225 239 239 243 232 250 109 77 64 144 166 289 278 128 78 77 109 134 148 141 145 151 159 166 169 169 168 166 164 163 160 154 148 143 139 129 118 109 100 92 85 77 71 66 62 61 59 58
244 231 226 241 256 263 116 66 73 298 237 164 195 301 67 79 98 115 137 153 147 150 150 157 169 171 172 171 170 169 167 167 162 158 156 152 142 132 125 119 110 99 87 77 69 63 60 57 53
234 240 227 231 236 224 158 130 152 256 275 170 172 280 84 100 96 110 128 160 152 147 146 155 171 172 174 174 174 173 172 173 170 168 168 165 158 151 149 144 135 126 112 95 78 66 58 52 47
250 253 258 257 244 200 147 91 21 305 305 331 59 316 100 77 87 112 132 163 145 142 143 150 169 174 177 178 178 178 178 179 179 178 177 177 173 173 171 167 164 161 155 140 117 78 51 39 29
291 272 261 269 283 303 84 84 37 320 314 5 36 311 89 126 122 114 117 134 132 139 147 151 165 171 174 177 181 181 182 184 186 185 182 183 185 191 190 183 187 187 189 194 203 224 252 276 290
287 274 269 272 305 334 69 91 244 203 271 285 257 239 122 136 133 132 131 141 145 148 156 156 165 171 172 176 182 181 183 186 188 187 182 180 189 196 196 194 193 198 206 217 226 235 245 253 255
235 270 277 315 353 356 6 2 326 317 288 284 289 115 125 139 153 170 182 179 174 175 177 170 166 168 170 177 172 177 181 181 184 182 178 181 201 205 186 180 187 201 216 229 238 242 249 250 243
233 249 279 311 -0 8 344 323 307 288 277 293 323 8 67 134 182 198 211 198 179 173 173 177 170 163 165 166 162 172 176 173 186 195 183 183 195 195 168 154 174 198 215 226 239 236 227 226 227
263 280 288 309 30 9 305 298 296 285 284 321 17 27 356 302 242 218 223 206 155 156 163 170 168 158 161 160 161 166 169 171 178 193 194 182 180 181 179 175 177 188 194 205 219 205 221 226 225
260 269 282 302 298 258 269 271 274 268 270 26 61 62 312 302 326 6 39 143 139 148 156 165 165 161 156 155 160 168 173 173 177 181 194 190 175 176 187 198 202 204 201 199 209 218 233 238 234
318 322 303 280 256 241 247 260 252 248 188 138 149 162 93 46 31 20 26 101 142 145 151 156 162 162 154 155 161 170 176 173 177 175 185 192 184 184 190 207 214 218 218 220 217 225 237 242 239
306 284 275 248 227 206 275 267 236 216 162 169 182 146 107 74 59 46 37 39 132 134 135 141 156 159 157 165 172 170 178 174 174 174 182 188 194 199 200 209 218 222 223 228 233 244 254 258 257
243 251 258 219 159 127 172 270 245 144 158 188 183 134 117 95 75 61 53 60 86 111 115 118 126 144 150 154 163 167 179 177 168 169 180 191 197 205 211 214 222 226 228 227 230 233 247 258 259
235 241 251 196 170 163 199 263 222 155 175 195 186 145 122 104 83 72 65 66 79 98 105 107 113 127 129 133 136 139 125 123 133 152 174 192 202 209 215 221 228 233 237 235 234 234 233 251 261
277 287 299 294 172 190 227 258 249 211 199 195 169 138 119 105 91 82 78 70 74 86 98 104 108 111 114 116 121 106 83 71 99 137 186 209 215 222 224 230 240 245 249 250 244 246 246 247 256
307 312 302 302 288 206 251 262 255 224 194 182 165 141 123 115 111 102 98 91 85 87 96 103 108 108 106 102 109 117 136 154 150 168 214 233 230 234 235 241 251 254 253 251 249 251 261 267 269
298 285 283 286 247 203 264 268 255 219 189 178 163 144 134 130 123 113 103 97 95 95 98 102 103 101 95 98 101 104 108 107 108 129 196 245 243 236 227 228 236 242 251 261 257 251 259 264 249
259 258 268 283 313 259 258 277 237 175 151 160 155 143 140 143 138 127 111 99 92 91 97 100 99 96 95 97 93 80 67 49 66 355 246 251 244 246 236 236 238 244 240 248 251 244 243 254 250
262 273 283 291 295 278 219 274 218 161 162 173 164 149 144 140 135 131 123 113 105 102 99 100 101 98 98 98 95 104 105 104 136 142 186 246 214 216 236 245 251 254 253 254 253 246 239 242 253
249 30 312 281 269 274 263 257 250 156 178 185 178 160 147 143 139 134 128 125 117 111 109 110 106 102 99 96 96 86 68 49 41 28 24 349 312 190 229 248 264 265 260 259 260 262 253 240 241
112 204 257 254 255 259 235 222 251 185 191 180 178 166 153 147 141 135 130 126 122 121 118 118 113 109 104 97 94 87 73 40 28 15 8 343 328 318 294 264 269 270 267 265 262 258 257 252 251
174 203 239 216 216 242 222 207 251 169 174 173 173 166 157 152 150 149 149 146 142 142 138 129 120 115 105 94 87 91 85 52 39 20 355 336 328 324 316 321 287 277 267 264 261 259 257 253 253
196 211 226 249 242 242 183 227 241 83 106 157 161 160 158 160 160 160 160 153 150 151 147 134 123 115 104 96 85 84 85 68 31 7 332 313 300 293 300 300 286 280 277 273 267 261 257 255 252
202 215 244 296 303 285 247 201 116 96 90 146 157 161 166 167 163 161 159 155 153 153 149 138 129 119 110 100 83 59 51 43 357 326 310 295 287 286 291 290 285 282 280 276 273 264 262 260 256
268 260 189 207 234 255 255 227 191 174 183 180 173 171 170 166 162 160 159 155 151 147 141 131 127 126 121 104 93 72 358 349 324 306 295 290 291 294 293 288 285 284 283 281 278 275 270 270 266
192 230 228 220 244 253 284 314 33 156 169 178 184 177 171 167 165 161 156 151 145 143 146 142 135 123 113 96 74 6 324 323 313 299 293 293 293 295 293 291 290 288 285 284 283 281 283 283 282
199 205 210 221 232 215 246 278 35 96 133 158 172 170 165 161 156 151 148 145 146 150 148 143 136 125 119 100 20 316 309 304 298 294 296 302 302 300 295 293 290 288 288 287 286 287 288 286 287